EW2631 Weather Reports


time (UTC)temp
C
wind
direction
speed
KPH
gust
KPH
rain 1hr
cm
rain 24hr
cm
rain mn
cm
humidity
%
barometer
mb
20260502123020 3 6 0.0 3.2 0.00 0.00 0.00 68 1021.9
20260502121517 2 6 0.0 1.6 0.00 0.00 0.00 72 1021.9
20260502114515 1 6 0.0 1.6 0.00 0.00 0.00 74 1022.0
20260502113015 0 6 0.0 0.0 0.00 0.00 0.00 75 1021.9
20260502111513 0 6 0.0 1.6 0.00 0.00 0.00 74 1021.9
20260502110012 1 6 0.0 1.6 0.00 0.00 0.00 73 1021.8
20260502104520 1 6 0.0 1.6 0.00 0.00 0.00 72 1021.9
20260502103014 1 6 0.0 1.6 0.00 0.00 0.00 71 1021.9
20260502101529 1 6 0.0 3.2 0.00 0.00 0.00 72 1021.9
20260502091507 1 6 0.0 1.6 0.00 0.00 0.00 74 1021.8
20260502070111 2 6 0.0 0.0 0.00 0.00 0.00 69 1021.8
20260502064557 2 6 0.0 0.0 0.00 0.00 0.00 69 1022.0
20260502063058 2 6 0.0 0.0 0.00 0.00 0.00 68 1022.1
20260502061552 2 6 0.0 0.0 0.00 0.00 0.00 68 1022.0
20260502060049 2 6 0.0 0.0 0.00 0.00 0.00 68 1021.9
20260502054552 2 6 0.0 0.0 0.00 0.00 0.00 68 1021.9
20260502053047 2 6 0.0 0.0 0.00 0.00 0.00 67 1021.9
20260502051603 2 6 0.0 0.0 0.00 0.00 0.00 67 1021.9
20260502050043 2 6 0.0 0.0 0.00 0.00 0.00 67 1021.9
20260502044545 3 6 0.0 0.0 0.00 0.00 0.00 66 1021.7
20260502043041 3 6 0.0 0.0 0.00 0.00 0.00 66 1021.7
20260502041541 3 6 0.0 0.0 0.00 0.00 0.00 65 1021.6
20260502040051 3 6 0.0 0.0 0.00 0.00 0.00 64 1021.5
20260502034538 3 6 0.0 0.0 0.00 0.00 0.00 64 1021.4
20260502033041 3 6 0.0 0.0 0.00 0.00 0.00 62 1021.4
20260502031539 5 6 0.0 0.0 0.00 0.00 0.00 58 1021.4
20260502030036 5 6 0.0 0.0 0.00 0.00 0.00 55 1021.4
20260502024538 6 6 0.0 1.6 0.00 0.00 0.00 53 1021.3
20260502023039 6 6 0.0 1.6 0.00 0.00 0.00 52 1021.2
20260502021532 6 6 0.0 1.6 0.00 0.00 0.00 52 1021.1
20260502020038 7 6 0.0 0.0 0.00 0.00 0.00 50 1020.8
20260502014532 8 6 0.0 1.6 0.00 0.00 0.00 47 1020.6
20260502013051 8 6 0.0 3.2 0.00 0.00 0.00 44 1020.5
20260502011531 9 15 1.6 6.4 0.00 0.00 0.00 42 1020.4
20260502010031 10 25 3.2 6.4 0.00 0.00 0.00 40 1020.2
20260502004530 10 13 4.8 9.7 0.00 0.00 0.00 39 1020.1
20260502003029 11 54 3.2 11.3 0.00 0.00 0.00 39 1020.1
20260502001528 10 21 4.8 8.0 0.00 0.00 0.00 39 1020.1
20260502000028 11 13 6.4 16.1 0.00 0.00 0.00 36 1020.0
20260501234527 12 37 3.2 11.3 0.00 0.00 0.00 36 1019.9
20260501233029 11 37 4.8 12.9 0.00 0.00 0.00 36 1019.9
20260501231525 11 330 1.6 11.3 0.00 0.00 0.00 37 1019.9
20260501230036 11 43 6.4 16.1 0.00 0.00 0.00 36 1019.8
20260501224526 11 40 3.2 14.5 0.00 0.00 0.00 37 1019.8
20260501223025 12 27 3.2 12.9 0.00 0.00 0.00 38 1019.8
20260501221523 11 58 4.8 11.3 0.00 0.00 0.00 36 1019.8
20260501220044 12 314 6.4 16.1 0.00 0.00 0.00 36 1019.7
20260501214520 12 295 3.2 11.3 0.00 0.00 0.00 40 1019.9
20260501213018 12 32 8.0 16.1 0.00 0.00 0.00 40 1019.9
20260501211517 11 295 4.8 14.5 0.00 0.00 0.00 39 1020.0
20260501210016 11 321 6.4 14.5 0.00 0.00 0.00 37 1020.3
20260501204516 11 31 6.4 14.5 0.00 0.00 0.00 39 1020.3
20260501203015 11 73 6.4 14.5 0.00 0.00 0.00 40 1020.4
20260501201516 11 59 4.8 14.5 0.00 0.00 0.00 42 1020.4
20260501200012 11 10 8.0 17.7 0.00 0.00 0.00 41 1020.5
20260501194514 10 47 8.0 12.9 0.00 0.00 0.00 42 1020.6
20260501193008 10 68 6.4 16.1 0.00 0.00 0.00 45 1020.6
20260501191505 10 302 3.2 11.3 0.00 0.00 0.00 46 1020.7
20260501190004 10 39 6.4 12.9 0.00 0.00 0.00 44 1020.7
20260501184509 9 3 4.8 11.3 0.00 0.00 0.00 44 1020.7
20260501183003 10 32 6.4 17.7 0.00 0.00 0.00 45 1020.8
20260501181500 9 313 4.8 19.3 0.00 0.00 0.00 45 1020.9
20260501180059 9 32 6.4 17.7 0.00 0.00 0.00 47 1021.0
20260501174558 8 290 6.4 17.7 0.00 0.00 0.00 48 1021.1
20260501173107 8 319 6.4 19.3 0.00 0.00 0.00 48 1021.1
20260501171555 8 330 8.0 17.7 0.00 0.00 0.00 48 1021.1
20260501164552 8 312 4.8 17.7 0.00 0.00 0.00 49 1020.9
20260501163054 8 35 8.0 14.5 0.00 0.00 0.00 47 1020.9
20260501161554 8 306 4.8 17.7 0.00 0.00 0.00 53 1020.9
20260501160101 7 328 6.4 19.3 0.00 0.00 0.00 51 1020.8
20260501154550 7 41 8.0 19.3 0.00 0.00 0.00 50 1020.8
20260501153042 7 329 6.4 24.1 0.00 0.00 0.00 56 1020.8
20260501151539 7 37 6.4 12.9 0.00 0.00 0.00 63 1020.8
20260501150047 6 7 6.4 17.7 0.00 0.00 0.00 67 1020.7
20260501144537 6 50 8.0 16.1 0.00 0.00 0.00 64 1020.7
20260501143059 6 30 6.4 16.1 0.00 0.00 0.00 67 1020.7
20260501141527 5 25 4.8 14.5 0.00 0.00 0.00 69 1020.5
20260501140037 5 27 4.8 14.5 0.00 0.00 0.00 71 1020.5